1300406426431,1.41944
1300406486431,1.43316
1300406546431,1.41702
1300406606431,1.43188
1300406666431,1.41792
1300406726431,1.42805
1300406786431,1.41142
1300406846431,1.42483
1300406906431,1.42012
1300406966431,1.42593
1300407026431,1.42646
1300407086431,1.42089
1300407146431,1.42825
1300407206431,1.42973
1300407266431,1.41807
1300407326431,1.43069
1300407386431,1.42643
1300407446431,1.42074
1300407506431,1.42489
1300407566431,1.43143
1300407626431,1.41890
1300407686431,1.42311
1300407746431,1.42185
1300407806431,1.41305
1300407866431,1.41603
1300407926431,1.40401
1300407986431,1.42368
1300408046431,1.41838
1300408106431,1.41800
1300408166431,1.42160
1300408226431,1.41971
1300408286431,1.42382
1300408346431,1.42249
1300408406431,1.42321
1300408466431,1.41604
1300408526431,1.41995
1300408586431,1.41738
1300408646431,1.42224
1300408706431,1.42492
1300408766431,1.41921
1300408826431,1.42121
1300408886431,1.41213
1300408946431,1.41612
1300409006431,1.42911
1300409066431,1.40521
1300409126431,1.41156
1300409186431,1.41643
1300409246431,1.42823
1300409306431,1.41168
1300409366431,1.40718
1300409426431,1.43301
1300409486431,1.42845
1300409546431,1.41863
1300409606431,1.40882
1300409666431,1.41904
1300409726431,1.41043
1300409786431,1.40610
1300409846431,1.41633
1300409906431,1.41231
1300409966431,1.40605
1300410026443,1.42365
1300410086443,1.41696
1300410146443,1.41576
1300410206443,1.42096
1300410266443,1.43812
1300410326443,1.41853
1300410386443,1.41675
1300410446443,1.41353
1300410506443,1.41196
1300410566443,1.41391
1300410626443,1.41117
1300410686443,1.41776
1300410746443,1.40695
1300410806443,1.41065
1300410866443,1.39301
1300410926443,1.40481
1300410986443,1.40510
1300411046443,1.41930
1300411106443,1.40593
1300411166443,1.41544
1300411226443,1.41008
1300411286443,1.40822
1300411346443,1.41428
1300411406443,1.39581
1300411466443,1.41168
1300411526443,1.40463
1300411586443,1.39729
1300411646443,1.39801
1300411706443,1.40451
1300411766443,1.40086
1300411826443,1.40383
1300411886443,1.40213
1300411946443,1.40865
1300412006443,1.41176
1300412066443,1.39845
1300412126443,1.41529
1300412186443,1.40816
1300412246443,1.40717
1300412306443,1.40136
1300412366443,1.41383
1300412426443,1.39055
1300412486443,1.39910
1300412546443,1.40818
1300412606443,1.40721
1300412666443,1.39933
1300412726443,1.42049
1300412786443,1.40595
1300412846443,1.41251
1300412906443,1.41504
1300412966443,1.40951
1300413026443,1.40187
1300413086443,1.40000
1300413146443,1.39829
1300413206443,1.40482
1300413266443,1.39960
1300413326443,1.40101
1300413386443,1.40440
1300413446443,1.41412
1300413506443,1.41248
1300413566443,1.40999
1300413626456,1.39713
1300413686456,1.40336
1300413746456,1.41275
1300413806456,1.39654
1300413866456,1.40512
1300413926456,1.39813
1300413986456,1.40968
1300414046456,1.41002
1300414106456,1.39915
1300414166456,1.44041
1300414226456,1.39042
1300414286456,1.42231
1300414346456,1.39899
1300414406456,1.42076
1300414466456,1.40156
1300414526456,1.39468
1300414586456,1.40562
1300414646456,1.40928
1300414706456,1.40389
1300414766456,1.41136
1300414826456,1.40179
1300414886456,1.39867
1300414946456,1.42458
1300415006456,1.41549
1300415066456,1.41660
1300415126456,1.40760
1300415186456,1.39502
1300415246456,1.41571
1300415306456,1.42090
1300415366456,1.41616
1300415426456,1.41124
1300415486456,1.41587
1300415546456,1.40742
1300415606456,1.39764
1300415666456,1.41577
1300415726456,1.40548
1300415786456,1.40021
1300415846456,1.40719
1300415906456,1.40312
1300415966456,1.40014
1300416026456,1.40525
1300416086456,1.40718
1300416146456,1.40801
1300416206456,1.39732
1300416266456,1.40151
1300416326456,1.40166
1300416386456,1.40128
1300416446456,1.40094
1300416506456,1.39311
1300416566456,1.40273
1300416626456,1.40399
1300416686456,1.40588
1300416746456,1.40517
1300416806456,1.39537
1300416866456,1.39618
1300416926456,1.39913
1300416986456,1.40746
1300417046456,1.41417
1300417106456,1.39606
1300417166456,1.40388
1300417226469,1.40907
1300417286469,1.39939
1300417346469,1.41156
1300417406469,1.39493
1300417466469,1.40947
1300417526469,1.40706
1300417586469,1.39977
1300417646469,1.41593
1300417706469,1.40163
1300417766469,1.39598
1300417826469,1.40465
1300417886469,1.39779
1300417946469,1.40144
1300418006469,1.39303
1300418066469,1.41176
1300418126469,1.34937
1300418186469,1.41072
1300418246469,1.76957
1300418306469,1.40138
1300418366469,1.41725
1300418426469,1.39861
1300418486469,1.39832
1300418546469,1.39584
1300418606469,1.40141
1300418666469,1.39821
1300418726469,1.39972
1300418786469,1.40279
1300418846469,1.39889
1300418906469,1.39673
1300418966469,1.39840
1300419026469,1.39328
1300419086469,1.40685
1300419146469,1.40527
1300419206469,1.39759
1300419266469,1.40605
1300419326469,1.39898
1300419386469,1.40518
1300419446469,1.40432
1300419506469,1.40594
1300419566469,1.40660
1300419626469,1.39333
1300419686469,1.39686
1300419746469,1.39315
1300419806469,1.39209
1300419866469,1.39814
1300419926469,1.39535
1300419986469,1.39177
1300420046469,1.40173
1300420106469,1.40874
1300420166469,1.39600
1300420226469,1.38197
1300420286469,1.41534
1300420346469,1.39917
1300420406469,1.39070
1300420466469,1.40915
1300420526469,1.39933
1300420586469,1.40660
1300420646469,1.40438
1300420706469,1.40395
1300420766469,1.40167
1300420826481,1.39537
1300420886481,1.40020
1300420946481,1.40848
1300421006481,1.40204
1300421066481,1.38992
1300421126481,1.40450
1300421186481,1.40379
1300421246481,1.40522
1300421306481,1.40836
1300421366481,1.38992
1300421426481,1.39794
1300421486481,1.40213
1300421546481,1.40256
1300421606481,1.41129
1300421666481,1.41564
1300421726481,1.40016
1300421786481,1.39939
1300421846481,1.39534
1300421906481,1.40727
1300421966481,1.40719
1300422026481,1.40452
1300422086481,1.39828
1300422146481,1.39355
1300422206481,1.40702
1300422266481,1.39778
1300422326481,1.40126
1300422386481,1.39601
1300422446481,1.40811
1300422506481,1.39960
1300422566481,1.40154
1300422626481,1.40179
1300422686481,1.39434
1300422746481,1.42287
1300422806481,1.40079
1300422866481,1.39042
1300422926481,1.41124
1300422986481,1.39690
1300423046481,1.40451
1300423106481,1.40554
1300423166481,1.40283
1300423226481,1.40921
1300423286481,1.40689
1300423346481,1.39538
1300423406481,1.39700
1300423466481,1.40996
1300423526481,1.43390
1300423586481,1.39948
1300423646481,1.40750
1300423706481,1.40870
1300423766481,1.40439
1300423826481,1.39661
1300423886481,1.39031
1300423946481,1.40110
1300424006481,1.39718
1300424066481,1.40509
1300424126481,1.40183
1300424186481,1.40208
1300424246481,1.40549
1300424306481,1.38954
1300424366481,1.40780
1300424426494,1.39662
1300424486494,1.39015
1300424546494,1.39958
1300424606494,1.40440
1300424666494,1.38564
1300424726494,1.38522
1300424786494,1.39148
1300424846494,1.38556
1300424906494,1.40008
1300424966494,1.40899
1300425026494,1.39624
1300425086494,1.39896
1300425146494,1.39258
1300425206494,1.39586
1300425266494,1.40048
1300425326494,1.40560
1300425386494,1.39211
1300425446494,1.39838
1300425506494,1.40003
1300425566494,1.39269
1300425626494,1.39522
1300425686494,1.39526
1300425746494,1.39535
1300425806494,1.39683
1300425866494,1.40226
1300425926494,1.40490
1300425986494,1.40579
1300426046494,1.38700
1300426106494,1.39186
1300426166494,1.38916
1300426226494,1.39522
1300426286494,1.40200
1300426346494,1.39851
1300426406494,1.40090
1300426466494,1.39643
1300426526494,1.40149
1300426586494,1.38945
1300426646494,1.39736
1300426706494,1.38500
1300426766494,1.40098
1300426826494,1.40393
1300426886494,1.38478
1300426946494,1.38769
1300427006494,1.39312
1300427066494,1.39898
1300427126494,1.38381
1300427186494,1.39110
1300427246494,1.38893
1300427306494,1.38690
1300427366494,1.39952
1300427426494,1.38775
1300427486494,1.39294
1300427546494,1.38103
1300427606494,1.38380
1300427666494,1.39572
1300427726494,1.40084
1300427786494,1.39523
1300427846494,1.39391
1300427906494,1.38863
1300427966494,1.39687
1300428026506,1.38712
1300428086506,1.39187
1300428146506,1.38766
1300428206506,1.38960
1300428266506,1.40345
1300428326506,1.38192
1300428386506,1.39550
1300428446506,1.39110
1300428506506,1.40334
1300428566506,1.39592
1300428626506,1.39845
1300428686506,1.39296
1300428746506,1.38810
1300428806506,1.39550
1300428866506,1.38807
1300428926506,1.38817
1300428986506,1.39138
1300429046506,1.39056
1300429106506,1.43836
1300429166506,1.39003
1300429226506,1.40683
1300429286506,1.41020
1300429346506,1.38406
1300429406506,1.40578
1300429466506,1.38560
1300429526506,1.38514
1300429586506,1.36707
1300442606554,1.39302
1300442666554,1.37947
1300442726554,1.38239
1300442786554,1.37978
1300442846554,1.37431
1300442906554,1.37305
1300442966554,1.39983
1300443026554,1.38069
1300443086554,1.35585
1300443146554,1.37417
1300443206554,1.36906
1300443266554,1.37127
1300443326554,1.37102
1300443386554,1.36503
1300443446554,1.37264
1300443506554,1.36323
1300443566554,1.38142
1300443626554,1.37216
1300443686554,1.36733
1300443746554,1.37419
1300443806554,1.37440
1300443866554,1.36606
1300443926554,1.36475
1300443986554,1.37279
1300444046554,1.36570
1300444106554,1.38286
1300444166554,1.36678
1300444226554,1.38202
1300444286554,1.37785
1300444346554,1.37415
1300444406554,1.37294
1300444466554,1.37476
1300444526554,1.37841
1300444586554,1.38027
1300444646554,1.35772
1300444706554,1.37182
1300444766554,1.37000
1300444826554,1.37626
1300444886554,1.36644
1300444946554,1.37571
1300445006554,1.36439
1300445066554,1.37128
1300445126554,1.37476
1300445186554,1.36838
1300445246554,1.37095
1300445306554,1.36182
1300445366554,1.37842
1300445426554,1.37567
1300445486554,1.36380
1300445546554,1.36398
1300445606554,1.36252
1300445666554,1.36086
1300445726554,1.37464
1300445786554,1.37799
1300445846554,1.36198
1300445906554,1.38000
1300445966554,1.37285
1300446026566,1.37255
1300446086566,1.36851
1300446146566,1.36078
1300446206566,1.37243
1300446266566,1.37814
1300446326566,1.37704
1300446386566,1.36300
1300446446566,1.37170
1300446506566,1.36086
1300446566566,1.36629
1300446626566,1.36685
1300446686566,1.36096
1300446746566,1.37543
1300446806566,1.37735
1300446866566,1.41716
1300446926566,1.36494
1300446986566,1.37417
1300447046566,1.39015
1300447106566,1.37863
1300447166566,1.35688
1300447226566,1.37757
1300447286566,1.37463
1300447346566,1.38398
1300447406566,1.38098
1300447466566,1.37170
1300447526566,1.38721
1300447586566,1.37922
1300447646566,1.38872
1300447706566,1.36532
1300447766566,1.38620
1300447826566,1.36616
1300447886566,1.37547
1300447946566,1.37440
1300448006566,1.36926
1300448066566,1.38132
1300448126566,1.37122
1300448186566,1.38229
1300448246566,1.39037
1300448306566,1.38400
1300448366566,1.37643
1300448426566,1.38046
1300448486566,1.38128
1300448546566,1.37245
1300448606566,1.37472
1300448666566,1.37949
1300448726566,1.38014
1300448786566,1.38230
1300448846566,1.39546
1300448906566,1.37579
1300448966566,1.39499
1300449026566,1.38935
1300449086566,1.38663
1300449146566,1.39022
1300449206566,1.38689
1300449266566,1.38935
1300449326566,1.37750
1300449386566,1.38816
1300449446566,1.38883
1300449506566,1.39003
1300449566566,1.38678
1300449626579,1.39246
1300449686579,1.38110
1300449746579,1.37904
1300449806579,1.39214
1300449866579,1.37565
1300449926579,1.38712
1300449986579,1.37930
1300450046579,1.37797
1300450106579,1.37934
1300450166579,1.37551
1300450226579,1.39587
1300450286579,1.36922
1300450346579,1.38820
1300450406579,1.38062
1300450466579,1.37142
1300450526579,1.38686
1300450586579,1.38757
1300450646579,1.38405
1300450706579,1.38035
1300450766579,1.37369
1300450826579,1.38158
1300450886579,1.38402
1300450946579,1.37041
1300451006579,1.37634
1300451066579,1.37175
1300451126579,1.37384
1300451186579,1.37366
1300451246579,1.37211
1300451306579,1.38243
1300451366579,1.37188
1300451426579,1.37392
1300451486579,1.38105
1300451546579,1.36961
1300451606579,1.37487
1300451666579,1.37399
1300451726579,1.36967
1300451786579,1.40576
1300451846579,1.38163
1300451906579,1.37749
1300451966579,1.37864
1300452026579,1.38558
1300452086579,1.37585
1300452146579,1.36593
1300452206579,1.37721
1300452266579,1.38481
1300452326579,1.36774
1300452386579,1.36073
1300452446579,1.38093
1300452506579,1.38238
1300452566579,1.37576
1300452626579,1.36324
1300452686579,1.36564
1300452746579,1.37281
1300452806579,1.38485
1300452866579,1.37440
1300452926579,1.37210
1300452986579,1.37293
1300453046579,1.38703
1300453106579,1.37578
1300453166579,1.37142
1300453226591,1.37691
1300453286591,1.37917
1300453346591,1.37698
1300453406591,1.36616
1300453466591,1.36408
1300453526591,1.38681
1300453586591,1.37585
1300453646591,1.38235
1300453706591,1.37076
1300453766591,1.38038
1300453826591,1.37033
1300453886591,1.37092
1300453946591,1.37138
1300454006591,1.39517
1300454066591,1.37052
1300454126591,1.35824
1300454186591,1.38682
1300454246591,1.36822
1300454306591,1.37356
1300454366591,1.36568
1300454426591,1.37188
1300454486591,1.37643
1300454546591,1.37770
1300454606591,1.37352
1300454666591,1.36796
1300454726591,1.37119
1300454786591,1.36786
1300454846591,1.36234
1300454906591,1.36381
1300454966591,1.36504
1300455026591,1.37481
1300455086591,1.37043
1300455146591,1.38650
1300455206591,1.37370
1300455266591,1.37736
1300455326591,1.36709
1300455386591,1.35651
1300455446591,1.38253
1300455506591,1.37446
1300455566591,1.37253
1300455626591,1.37723
1300455686591,1.36980
1300455746591,1.37335
1300455806591,1.37400
1300455866591,1.38344
1300455926591,1.37237
1300455986591,1.37054
1300456046591,1.37455
1300456106591,1.37672
1300456166591,1.36711
1300456226591,1.36969
1300456286591,1.36956
1300456346591,1.36743
1300456406591,1.37533
1300456466591,1.36505
1300456526591,1.37561
1300456586591,1.36861
1300456646591,1.37817
1300456706591,1.37619
1300456766591,1.37229
1300456826604,1.36350
1300456886604,1.37241
1300456946604,1.37417
1300457006604,1.35581
1300457066604,1.36508
1300457126604,1.36370
1300457186604,1.36067
1300457246604,1.36103
1300457306604,1.36859
1300457366604,1.36228
1300457426604,1.37320
1300457486604,1.36486
1300457546604,1.36001
1300457606604,1.36603
1300457666604,1.48651
1300457726604,1.35464
1300457786604,1.35635
1300457846604,1.40932
1300457906604,1.42836
1300457966604,1.38244
1300458026604,1.36430
1300458086604,1.36152
1300458146604,1.36838
1300458206604,1.36612
1300458266604,1.36655
1300458326604,1.37698
1300458386604,1.36250
1300458446604,1.36310
1300458506604,1.35335
1300458566604,1.37858
1300458626604,1.36401
1300458686604,1.35750
1300458746604,1.36088
1300458806604,1.36308
1300458866604,1.35307
1300458926604,1.36487
1300458986604,1.36418
1300459046604,1.36495
1300459106604,1.36332
1300459166604,1.35394
1300459226604,1.35946
1300459286604,1.34533
1300459346604,1.35126
1300459406604,1.36817
1300459466604,1.35559
1300459526604,1.36092
1300459586604,1.35193
1300459646604,1.34583
1300459706604,1.35515
1300459766604,1.35955
1300459826604,1.35668
1300459886604,1.35436
1300459946604,1.35111
1300460006604,1.34309
1300460066604,1.35094
1300460126604,1.35489
1300460186604,1.35712
1300460246604,1.34899
1300460306604,1.35065
1300460366604,1.35641
1300460426616,1.33995
1300460486616,1.34728
1300460546616,1.35342
1300460606616,1.36490
1300460666616,1.34541
1300460726616,1.34307
1300460786616,1.35425
1300460846616,1.34635
1300460906616,1.35823
1300460966616,1.34077
1300461026616,1.35096
1300461086616,1.35488
1300461146616,1.34686
1300461206616,1.35073
1300461266616,1.35803
1300461326616,1.34787
1300461386616,1.35379
1300461446616,1.33969
1300461506616,1.35356
1300461566616,1.35437
1300461626616,1.35906
1300461686616,1.35791
1300461746616,1.34754
1300461806616,1.35725
1300461866616,1.34838
1300461926616,1.35730
1300461986616,1.36184
1300462046616,1.35287
1300462106616,1.37373
1300462166616,1.34434
1300462226616,1.35124
1300462286616,1.35491
1300462346616,1.35524
1300462406616,1.36188
1300462466616,1.35684
1300462526616,1.36214
1300462586616,1.34351
1300462646616,1.36268
1300462706616,1.35371
1300462766616,1.34602
1300462826616,1.36036
1300462886616,1.36805
1300462946616,1.35570
1300463006616,1.35403
1300463066616,1.36208
1300463126616,1.35992
1300463186616,1.36483
1300463246616,1.34800
1300463306616,1.34446
1300463366616,1.36672
1300463426616,1.35575
1300463486616,1.36564
1300463546616,1.35477
1300463606616,1.36037
1300463666616,1.36347
1300463726616,1.36440
1300463786616,1.36787
1300463846616,1.37200
1300463906616,1.36776
1300463966616,1.36528
1300464026628,1.36963
1300464086628,1.36584
1300464146628,1.36070
1300464206628,1.36396
1300464266628,1.36583
1300464326628,1.36305
1300464386628,1.36819
1300464446628,1.42682
1300464506628,1.36581
1300464566628,1.35582
1300464626628,1.36145
1300464686628,1.36164
1300464746628,1.35019
1300464806628,1.35847
1300464866628,1.36408
1300464926628,1.36907
1300464986628,1.36305
1300465046628,1.34445
1300465106628,1.36842
1300465166628,1.35896
1300465226628,1.34799
1300465286628,1.34834
1300465346628,1.34612
1300465406628,1.35219
1300465466628,1.34952
1300465526628,1.35507
1300465586628,1.34295
1300465646628,1.34704
1300465706628,1.35737
1300465766628,1.34310
1300465826628,1.35084
1300465886628,1.35817
1300465946628,1.36238
1300466006628,1.34512
1300466066628,1.36150
1300466126628,1.35075
1300466186628,1.34429
1300466246628,1.35846
1300466306628,1.35775
1300466366628,1.34569
1300466426628,1.35422
1300466486628,1.35126
1300466546628,1.34878
1300466606628,1.34209
1300466666628,1.34830
1300466726628,1.35465
1300466786628,1.34181
1300466846628,1.35742
1300466906628,1.34882
1300466966628,1.35116
1300467026628,1.46852
1300467086628,1.45293
1300467146628,1.34021
1300467206628,1.35455
1300467266628,1.35349
1300467326628,1.34072
1300467386628,1.34711
1300467446628,1.33462
1300467506628,1.35356
1300467566628,1.34769
1300467626641,1.34769
1300467686641,1.34285
1300467746641,1.34362
1300467806641,1.33613
1300467866641,1.34955
1300467926641,1.34468
1300467986641,1.34833
1300468046641,1.34628
1300468106641,1.35355
1300468166641,1.34997
1300468226641,1.35506
1300468286641,1.34348
1300468346641,1.34414
1300468406641,1.35408
1300468466641,1.34779
1300468526641,1.35845
1300468586641,1.35166
1300468646641,1.34224
1300468706641,1.34931
1300468766641,1.34800
1300468826641,1.34005
1300468886641,1.32928
1300468946641,1.35626
1300469006641,1.35586
1300469066641,1.35688
1300469126641,1.35494
1300469186641,1.34983
1300469246641,1.34795
1300469306641,1.35161
1300469366641,1.35603
1300469426641,1.34712
1300469486641,1.33718
1300469546641,1.34029
1300469606641,1.36821
1300469666641,1.35164
1300469726641,1.35006
1300469786641,1.35615
1300469846641,1.34340
1300469906641,1.34803
1300469966641,1.34612
1300470026641,1.34109
1300470086641,1.34607
1300470146641,1.35079
1300470206641,1.34838
1300470266641,1.34434
1300470326641,1.35641
1300470386641,1.34322
1300470446641,1.34268
1300470506641,1.34381
1300470566641,1.33779
1300470626641,1.33734
1300470686641,1.35833
1300470746641,1.34255
1300470806641,1.34622
1300470866641,1.35047
1300470926641,1.35498
1300470986641,1.36025
1300471046641,1.36250
1300471106641,1.35158
1300471166641,1.34618
1300471226653,1.34610
1300471286653,1.34964
1300471346653,1.35552
1300471406653,1.35149
1300471466653,1.34290
1300471526653,1.35335
1300471586653,1.34450
1300471646653,1.34937
1300471706653,1.36851
1300471766653,1.34368
1300471826653,1.34562
1300471886653,1.35241
1300471946653,1.34431
1300472006653,1.35081
1300472066653,1.34016
1300472126653,1.35066
1300472186653,1.35555
1300472246653,1.34384
1300472306653,1.35793
1300472366653,1.34142
1300472426653,1.35605
1300472486653,1.35937
1300472546653,1.34795
1300472606653,1.36487
1300472666653,1.33705
1300472726653,1.34904
1300472786653,1.33939
1300472846653,1.34446
1300472906653,1.34416
1300472966653,1.35109
1300473026653,1.35773
1300473086653,1.33460
1300473146653,1.33997
1300473206653,1.35695
1300473266653,1.34401
1300473326653,1.34205
1300473386653,1.35473
1300473446653,1.34303
1300473506653,1.34875
1300473566653,1.34172
1300473626653,1.35966
1300473686653,1.34713
1300473746653,1.34960
1300473806653,1.35230
1300473866653,1.34953
1300473926653,1.34316
1300473986653,1.35198
1300474046653,1.35511
1300474106653,1.35825
1300474166653,1.35997
1300474226653,1.34748
1300474286653,1.34868
1300474346653,1.36108
1300474406653,1.33883
1300474466653,1.35148
1300474526653,1.34475
1300474586653,1.34586
1300474646653,1.34367
1300474706653,1.34927
1300474766653,1.35681
1300474826665,1.35217
1300474886665,1.35511
1300474946665,1.35044
1300475006665,1.35620
1300475066665,1.34774
1300475126665,1.35164
1300475186665,1.35840
1300475246665,1.34757
1300475306665,1.34371
1300475366665,1.35930
1300475426665,1.35829
1300475486665,1.36049
1300475546665,1.35143
1300475606665,1.36707
1300475666665,1.35704
1300475726665,1.36318
1300475786665,1.36328
1300475846665,1.36921
1300475906665,1.37454
1300475966665,1.37991
1300476026665,1.35853
1300476086665,1.35816
1300476146665,1.35731
1300476206665,1.36350
1300476266665,1.36493
1300476326665,1.36500
1300476386665,1.34754
1300476446665,1.35579
1300476506665,1.36457
1300476566665,1.36172
1300476626665,1.36016
1300476686665,1.36588
1300476746665,1.35773
1300476806665,1.35638
1300476866665,1.36315
1300476926665,1.36722
1300476986665,1.35409
1300477046665,1.36778
1300477106665,1.36603
1300477166665,1.35824
1300477226665,1.37893
1300477286665,1.36704
1300477346665,1.38449
1300477406665,1.37330
1300477466665,1.36628
1300477526665,1.36247
1300477586665,1.36555
1300477646665,1.37563
1300477706665,1.37962
1300477766665,1.36896
1300477826665,1.37187
1300477886665,1.37408
1300477946665,1.35628
1300478006665,1.36886
1300478066665,1.38209
1300478126665,1.37481
1300478186665,1.37484
1300478246665,1.37227
1300478306665,1.36831
1300478366665,1.36406
1300478426677,1.37326
1300478486677,1.36845
1300478546677,1.37085
1300478606677,1.37747
1300478666677,1.37413
1300478726677,1.36723
1300478786677,1.37031
1300478846677,1.36597
1300478906677,1.37125
1300478966677,1.36523
1300479026677,1.36189
1300479086677,1.36221
1300479146677,1.37282
1300479206677,1.37330
1300479266677,1.37916
1300479326677,1.36592
1300479386677,1.36853
1300479446677,1.37639
1300479506677,1.36745
1300479566677,1.37075
1300479626677,1.37322
1300479686677,1.37273
1300479746677,1.37795
1300479806677,1.37863
1300479866677,1.38143
1300479926677,1.38547
1300479986677,1.37003
1300480046677,1.36369
1300480106677,1.37389
1300480166677,1.37612
1300480226677,1.38003
1300480286677,1.37629
1300480346677,1.39206
1300480406677,1.36300
1300480466677,1.37418
1300480526677,1.36661
1300480586677,1.36955
1300480646677,1.36978
1300480706677,1.36911
1300480766677,1.37572
1300480826677,1.38325
1300480886677,1.36878
1300480946677,1.38423
1300481006677,1.37152
1300481066677,1.37156
1300481126677,1.37139
1300481186677,1.38404
1300481246677,1.37375
1300481306677,1.37114
1300481366677,1.37855
1300481426677,1.38917
1300481486677,1.38025
1300481546677,1.37771
1300481606677,1.37001
1300481666677,1.37345
1300481726677,1.36732
1300481786677,1.36890
1300481846677,1.38743
1300481906677,1.36888
1300481966677,1.36791
1300482026689,1.37712
1300482086689,1.39258
1300482146689,1.38841
1300482206689,1.38055
1300482266689,1.36174
1300482326689,1.37544
1300482386689,1.38862
1300482446689,1.37559
1300482506689,1.36728
1300482566689,1.38100
1300482626689,1.37236
1300482686689,1.34018
1300483226689,1.37018
1300483286689,1.36898
1300483346689,1.36899
1300483406689,1.36493
1300483466689,1.36452
1300483526689,1.35585
1300483586689,1.36923
1300483646689,1.37526
1300483706689,1.37574
1300483766689,1.37143
1300483826689,1.36719
1300483886689,1.38010
1300483946689,1.37215
1300484006689,1.37456
1300484066689,1.36594
1300484126689,1.35512
1300484186689,1.36359
1300484246689,1.36739
1300484306689,1.36943
1300484366689,1.36703
1300484426689,1.36378
1300484486689,1.36724
1300484546689,1.37231
1300484606689,1.37358
1300484666689,1.36653
1300484726689,1.37743
1300484786689,1.36262
1300484846689,1.36996
1300484906689,1.35708
1300484966689,1.37046
1300485026689,1.37726
1300485086689,1.36978
1300485146689,1.36060
1300485206689,1.38478